Location: Alsip
(41.6689°N, 87.7387°W)
Time: 13:47:58
(UTC+00:00)

DELTA 2 R/B (1) - Pass Details

Date: 14 July 2020
Orbit: 791 x 802 km, 39.6° (Epoch: 04 August)

Event Time Altitude Azimuth Distance (km) Brightness Sun altitude
Rises 04:30:47 0° 278° (W) 3,288 7.2 -23.7°
Reaches altitude 10° 04:33:22 10° 272° (W) 2,358 6.3 -23.8°
Enters shadow 04:37:52 42° 223° (SW) 1,129 4.1 -24.1°
